CAPE
136 138 183 266 326 339 293 307 279 243 271 240 225 460 827 1061 1252 1424 1405 1668 1887 1963 1893 1637 1417 1580 1541 1431 936 716 445 240 182 220 390 288 347 424 404 423 387 380 336
202 159 142 266 326 344 315 360 394 301 315 340 378 454 724 883 1055 1194 1069 1228 1533 1772 2067 2076 1757 1722 1816 1911 1657 1397 1086 904 495 292 406 492 447 517 611 534 485 311 271
261 206 200 248 327 361 422 444 463 408 370 374 402 368 376 698 954 1130 1059 1260 1524 1641 1997 2201 2142 2162 1922 1756 1931 1689 1631 1591 1252 894 799 737 629 452 469 463 390 431 400
298 311 345 358 357 451 527 541 565 524 430 467 486 499 489 621 860 1150 1254 1246 1370 1685 1918 2124 2217 2251 2256 2179 2139 2168 2076 1781 1618 1567 1278 1193 1222 1200 811 472 445 504 425
425 464 493 511 539 600 703 694 697 672 577 622 614 603 667 736 624 789 1024 1283 1498 1625 1826 1995 2138 2067 1894 2071 2225 2225 2179 2044 1755 1354 1286 1118 1025 984 938 851 753 678 609
546 613 662 687 698 737 777 821 820 691 633 755 755 759 797 826 452 359 705 1121 1610 1743 1601 1814 1865 1602 1367 1166 1243 1488 1933 2268 2144 2008 1785 1765 1971 1779 1681 1588 1427 1299 1271
572 639 778 841 815 826 875 953 1015 932 956 834 826 839 888 1003 585 269 184 662 1014 1240 1492 1762 1916 1877 1777 1897 1839 1241 1164 1178 1410 1886 2141 2313 2363 2408 2290 2175 2040 1851 1739
567 586 787 900 894 931 949 947 946 1086 1172 1253 1227 1250 1146 1141 796 424 248 470 858 1171 1354 1448 1516 1595 2022 1935 1906 2194 2412 2441 2030 1540 1618 1902 2330 2579 2638 2611 2561 2329 1940
644 686 773 925 1001 1107 1093 1091 1075 1037 1018 1064 1309 1458 1331 1301 902 559 450 850 1020 1161 1440 1612 1701 1630 1739 1514 1551 1480 1826 2210 2188 2014 1851 1713 1572 1450 1407 1672 1639 1639 1565
875 898 984 976 1002 1121 1234 1299 1396 1403 1357 1394 1317 1439 1468 1424 1274 638 470 1017 1205 1286 1616 1800 1541 1630 1793 1566 1632 1772 1981 2349 2678 2864 3029 2208 1553 1663 1253 1002 1343 1462 1455
1258 1256 1269 1271 1295 1327 1414 1587 1754 1799 1857 1986 1936 1957 1867 1715 1740 1126 694 1199 1454 1678 1758 1782 1960 1684 1491 1365 1369 2080 2417 2709 2953 3027 3030 2994 2862 2872 2827 2801 1476 1496 1643
1464 1429 1480 1458 1438 1655 1701 1825 1897 2033 2096 2188 2286 2430 2486 2491 1989 1668 1109 1019 1742 2035 2314 2498 2622 2214 1847 1668 1407 1539 1771 1851 2162 2494 2645 2545 2652 2736 2979 2930 2737 2049 1353
1372 1461 1576 1770 1842 1974 2106 2179 2226 2340 2327 2491 2591 2621 2722 2847 2979 2205 1653 1294 1318 1818 2388 2707 2616 2450 2183 1801 1657 1659 1410 1526 1830 2037 2225 2403 2433 2710 2379 2262 1996 1907 1786
1336 1566 1819 1987 2119 2294 2429 2459 2500 2608 2632 2692 2872 2933 2980 3065 3136 3223 2616 1864 1247 1189 1406 1989 2299 2237 2271 2484 2293 1793 1646 1859 2033 2356 2513 2275 2048 1946 1765 1538 1237 1188 1146
1597 1565 1666 1851 1999 2392 2435 2463 2604 2741 2765 2954 2960 3105 3173 3222 3257 3192 3230 3110 2754 2505 2267 2434 2448 2526 2692 2707 2519 2298 2248 1946 1917 1791 1792 1794 1750 1515 1326 962 827 457 55
1721 2076 1963 2586 1997 2146 2246 1342 490 751 893 1363 1906 2490 3185 2841 2808 2584 2466 2489 2547 2350 2519 2876 2903 2931 2954 2673 2491 2622 2546 2300 2090 1934 1880 1648 1414 1026 748 371 84 5 1
669 453 381 901 2212 2439 1880 1975 1869 711 356 638 927 1262 1580 2371 2253 2237 2256 2088 1728 1698 2789 3005 3127 3056 2836 2637 2550 2398 2256 2137 1749 1497 1432 1102 658 338 177 1 3 2 2
389 108 163 0 1044 2276 2196 2282 2328 2543 2418 2112 319 498 861 1471 1508 1789 1814 1787 2300 1502 2564 3010 2793 2482 2141 1924 1708 1498 1449 1204 861 655 515 190 53 57 1 4 9 4 4
3 541 1051 1268 1567 1857 2246 2304 2443 2681 2771 2513 1244 530 44 225 689 993 1157 2734 2950 2536 2029 1690 1230 986 824 632 618 480 268 157 5 0 0 0 2 4 5 6 5 0 0
0 1 183 922 1239 1661 2086 1906 1826 2013 2164 2091 1862 1568 397 544 1667 1696 1497 1366 1308 1237 925 729 299 59 18 13 1 0 0 0 0 1 1 0 1 8 8 8 6 6 2
0 0 0 526 942 944 1225 1534 1447 1347 1595 1660 1512 601 185 738 671 534 487 326 148 6 0 0 0 0 0 1 0 1 0 0 1 2 1 3 9 5 4 11 10 7 10
0 0 0 43 665 782 773 1183 1124 997 962 962 465 0 0 0 1 0 0 0 0 0 0 2 0 0 0 1 2 2 2 4 2 2 2 4 11 8 8 10 12 11 8
0 0 0 0 130 553 633 892 1011 865 715 573 97 0 0 0 1 2 1 1 0 0 0 0 2 0 0 0 0 0 0 0 0 0 1 4 5 3 1 4 11 10 5
1 2 2 0 73 326 513 660 357 76 192 70 1 0 0 0 1 1 1 0 0 0 0 0 0 0 0 0 0 0 0 0 0 0 0 5 3 1 2 1 8 7 7
4 3 0 0 1 2 2 3 4 3 3 5 2 2 1 2 2 2 1 3 0 0 0 0 0 0 0 0 0 0 0 0 0 0 0 0 10 12 3 6 6 1 2
7 7 7 6 5 9 9 9 8 7 7 7 5 5 5 4 4 2 2 1 2 0 0 0 0 0 0 0 0 0 0 0 0 0 0 0 22 34 37 35 22 7 1
CIN
-242 -225 -207 -202 -208 -210 -212 -194 -172 -146 -122 -123 -131 -92 -58 -44 -44 -37 -29 -20 -18 -14 -16 -23 -40 -39 -22 -35 -90 -125 -176 -231 -230 -209 -248 -285 -304 -278 -276 -313 -328 -323 -321
-258 -256 -271 -236 -231 -221 -233 -220 -197 -175 -147 -135 -118 -109 -79 -72 -60 -52 -52 -40 -38 -25 -18 -15 -37 -27 -36 -31 -52 -92 -121 -155 -219 -250 -243 -254 -316 -273 -273 -294 -303 -304 -326
-272 -280 -264 -263 -261 -253 -240 -214 -224 -204 -176 -163 -161 -152 -136 -101 -86 -73 -73 -48 -39 -44 -29 -23 -30 -24 -44 -54 -64 -77 -74 -89 -155 -224 -233 -242 -315 -354 -348 -383 -401 -357 -344
-306 -294 -290 -305 -284 -266 -249 -238 -229 -228 -192 -169 -185 -168 -147 -118 -109 -82 -74 -66 -59 -54 -45 -41 -37 -40 -49 -55 -61 -67 -72 -92 -104 -137 -204 -219 -233 -254 -347 -381 -350 -298 -330
-362 -329 -322 -329 -303 -281 -258 -249 -246 -236 -218 -180 -171 -176 -160 -139 -138 -132 -111 -95 -83 -74 -66 -65 -63 -77 -95 -78 -50 -69 -71 -80 -102 -143 -176 -226 -246 -231 -247 -256 -279 -302 -324
-386 -363 -336 -339 -318 -308 -282 -271 -263 -270 -251 -213 -194 -179 -160 -163 -203 -220 -161 -127 -103 -101 -106 -99 -103 -136 -168 -208 -214 -171 -98 -64 -84 -91 -121 -146 -150 -146 -143 -143 -146 -176 -203
-421 -372 -352 -364 -351 -338 -317 -290 -279 -267 -248 -254 -227 -224 -208 -199 -254 -299 -306 -199 -163 -160 -147 -128 -109 -104 -158 -144 -164 -269 -301 -307 -246 -144 -151 -120 -125 -92 -72 -87 -80 -94 -120
-451 -400 -395 -387 -370 -367 -356 -353 -333 -283 -245 -231 -222 -227 -234 -245 -294 -355 -378 -304 -233 -206 -192 -198 -195 -188 -147 -168 -160 -127 -117 -116 -197 -299 -298 -266 -150 -101 -42 -33 -35 -50 -112
-426 -419 -433 -426 -391 -373 -376 -363 -344 -337 -317 -301 -258 -230 -252 -270 -355 -412 -434 -336 -307 -300 -261 -255 -245 -259 -241 -282 -265 -279 -248 -199 -173 -242 -295 -321 -321 -315 -283 -176 -178 -134 -168
-409 -406 -440 -441 -403 -385 -363 -342 -324 -309 -282 -279 -296 -300 -306 -299 -341 -463 -512 -374 -357 -364 -329 -318 -365 -340 -292 -321 -305 -265 -273 -214 -121 -102 -97 -248 -348 -293 -330 -316 -211 -138 -116
-438 -449 -446 -439 -421 -393 -362 -347 -307 -282 -253 -249 -265 -284 -313 -352 -335 -463 -562 -425 -362 -332 -331 -314 -300 -364 -404 -416 -403 -251 -211 -134 -85 -83 -93 -95 -92 -84 -68 -47 -219 -164 -98
-438 -433 -428 -417 -393 -371 -377 -345 -323 -294 -284 -277 -262 -244 -244 -254 -351 -406 -523 -560 -381 -315 -262 -222 -209 -283 -353 -377 -422 -386 -319 -280 -200 -152 -142 -154 -135 -115 -75 -58 -46 -124 -251
-407 -378 -369 -371 -369 -343 -341 -319 -292 -284 -282 -264 -247 -242 -220 -200 -190 -329 -433 -523 -506 -394 -271 -214 -213 -236 -280 -342 -359 -347 -379 -327 -252 -210 -197 -166 -144 -99 -130 -129 -144 -130 -111
-416 -384 -354 -357 -353 -322 -293 -284 -284 -272 -273 -264 -245 -227 -203 -185 -184 -170 -279 -419 -559 -573 -507 -359 -274 -268 -249 -196 -206 -309 -312 -241 -189 -136 -120 -163 -196 -206 -220 -233 -261 -249 -236
-347 -343 -353 -363 -372 -313 -302 -308 -311 -273 -277 -255 -213 -184 -185 -176 -181 -200 -174 -187 -241 -271 -289 -257 -234 -189 -154 -142 -174 -192 -165 -207 -199 -219 -228 -234 -230 -259 -275 -322 -321 -394 -563
-266 -206 -258 -145 -241 -303 -309 -502 -840 -697 -574 -578 -408 -287 -194 -239 -215 -252 -289 -276 -240 -245 -215 -165 -149 -105 -102 -137 -142 -110 -107 -127 -141 -160 -176 -221 -255 -322 -367 -449 -593 -206 0
-373 -457 -553 -413 -34 -214 -314 -300 -313 -686 -849 -727 -610 -518 -470 -314 -273 -268 -277 -318 -370 -342 -135 -109 -70 -79 -107 -124 -111 -110 -111 -120 -183 -224 -229 -301 -402 -487 -539 -25 -1 0 -1
-362 -620 -437 -185 -109 -17 -227 -271 -281 -228 -221 -276 -817 -774 -659 -451 -390 -325 -314 -323 -197 -344 -115 -51 -86 -125 -177 -199 -226 -238 -225 -273 -356 -406 -448 -596 -684 -639 -1 -1 0 0 0
-31 -125 -6 -54 -38 -202 -226 -234 -215 -176 -141 -168 -434 -705 -1008 -850 -589 -460 -409 -97 -42 -65 -130 -196 -295 -353 -399 -463 -467 -522 -639 -700 -169 0 0 0 0 0 0 -1 -1 0 0
0 -46 -434 -237 -254 -221 -176 -221 -267 -246 -207 -191 -208 -265 -647 -598 -230 -222 -256 -247 -235 -239 -327 -394 -611 -853 -184 -189 -99 0 0 0 0 0 0 0 -1 0 0 0 0 0 0
0 0 0 -397 -271 -260 -228 -199 -249 -315 -276 -232 -209 -462 -656 -372 -379 -425 -454 -533 -622 -266 0 0 0 0 0 0 0 0 0 0 0 0 0 0 0 0 -1 0 0 0 0
0 0 0 -533 -268 -221 -234 -179 -215 -290 -342 -346 -479 0 0 -36 -347 0 0 0 0 0 0 0 0 0 0 0 0 0 0 0 0 0 0 -1 0 0 0 0 0 0 0
0 0 0 0 -395 -221 -212 -163 -178 -246 -340 -409 -619 0 0 0 0 0 0 0 0 0 0 0 0 0 0 0 0 0 0 0 0 0 0 -1 0 0 -1 -1 0 0 0
0 0 0 0 -357 -234 -164 -164 -309 -453 -385 -497 -73 0 0 0 0 0 0 0 0 0 0 0 0 0 0 0 0 0 0 0 0 0 0 0 0 0 0 -1 0 0 0
0 0 0 0 0 0 0 0 0 0 0 0 0 0 0 0 0 0 0 0 0 0 0 0 0 0 0 0 0 0 0 0 0 0 0 0 -1 -2 0 0 0 0 0
0 0 0 0 0 0 0 0 0 0 0 0 0 0 0 0 0 0 0 0 0 0 0 0 0 0 0 0 0 0 0 0 0 0 0 -4 -3 -1 -1 -1 -4 -8 -4
Wind_Speed
46 49 50 49 47 43 42 42 39 14 12 24 25 23 22 20 16 16 17 16 18 18 19 21 23 24 23 23 23 22 21 20 18 19 16 14 10 8 6 2 3 3 5
37 35 43 44 43 44 43 43 30 13 10 23 22 17 11 10 12 13 17 16 17 19 20 21 25 24 24 24 23 23 22 19 17 18 18 15 12 10 8 6 6 9 7
28 26 29 37 36 44 33 33 31 14 11 11 16 16 12 9 9 14 17 17 20 21 23 23 26 26 27 26 24 23 20 17 15 15 18 16 13 10 10 9 10 11 11
22 23 26 23 21 21 21 32 38 27 14 15 13 12 14 13 12 18 20 22 23 24 27 29 30 30 29 27 24 21 21 19 16 16 17 16 13 9 9 12 13 13 14
19 21 24 27 28 31 26 35 35 21 15 15 16 21 23 26 26 26 25 25 24 27 32 33 32 32 30 27 24 23 20 17 16 16 16 16 13 10 12 13 15 15 15
20 19 25 27 28 29 25 28 29 18 15 27 31 30 28 28 29 27 25 25 27 30 32 33 33 32 30 29 27 27 24 17 16 17 17 17 15 12 13 14 15 17 21
19 21 24 27 29 28 25 23 19 16 21 32 30 27 28 27 29 29 30 31 33 33 33 32 31 30 28 27 25 24 25 23 23 21 23 20 22 16 16 17 18 20 22
22 22 25 25 25 23 20 18 21 22 16 17 30 29 30 31 29 30 32 33 37 36 33 31 30 30 26 23 22 23 22 19 16 17 22 23 21 19 17 19 20 22 22
22 22 22 21 21 20 18 21 22 21 25 35 36 33 31 32 29 31 29 35 37 36 35 33 29 26 21 18 22 26 26 21 15 18 22 23 21 20 19 18 19 21 23
17 18 19 19 18 17 23 26 26 25 30 33 33 33 30 28 25 26 26 31 36 34 32 28 26 25 18 16 18 21 25 21 16 17 17 15 15 15 15 16 17 20 22
16 18 19 20 21 23 25 26 26 25 28 31 35 15 23 21 23 21 24 28 34 34 32 30 26 18 18 20 18 18 19 15 15 15 15 14 16 17 16 16 16 18 22
15 19 21 22 24 26 25 26 25 23 24 25 25 29 12 12 17 17 22 24 21 22 20 15 9 11 11 13 14 15 17 17 17 17 17 18 19 20 20 18 20 20 20
14 17 20 21 24 26 24 24 23 23 25 24 23 20 19 17 17 12 13 18 20 17 11 13 19 19 16 17 15 15 16 18 17 18 17 19 19 22 22 22 23 23 24
18 15 20 21 22 25 25 25 26 26 27 25 26 24 23 23 21 20 18 17 13 14 14 14 14 20 21 22 22 19 17 18 18 19 20 21 22 21 22 23 26 28 29
24 25 23 22 21 24 26 26 26 27 27 28 27 27 25 24 22 20 19 19 18 16 15 14 16 19 22 22 21 20 20 18 17 16 17 19 19 21 23 25 26 28 30
15 18 20 24 28 24 26 27 24 23 24 30 29 29 26 29 27 24 21 21 20 20 19 18 18 20 21 23 23 21 18 17 16 16 17 19 20 22 24 25 25 27 30
16 19 17 16 27 28 26 25 25 25 25 27 30 32 32 28 28 28 26 22 20 19 21 21 21 23 23 22 20 18 18 17 18 18 19 20 20 21 22 24 25 25 28
20 16 29 25 36 30 18 20 22 25 28 28 28 30 30 28 27 24 23 21 22 21 20 21 22 23 22 20 20 20 20 19 20 20 19 18 19 19 21 22 22 25 28
14 12 16 17 22 21 20 21 22 22 24 24 25 24 23 22 21 20 19 21 20 20 20 22 22 21 22 21 21 20 20 20 19 19 19 19 18 18 20 20 21 22 26
19 21 21 20 20 20 19 19 20 21 21 22 22 22 20 19 19 18 18 18 18 19 19 19 20 20 20 21 20 20 20 20 20 19 19 19 19 18 19 19 21 22 23
26 26 26 23 23 23 23 23 22 20 19 20 21 19 18 19 19 18 17 17 17 16 16 16 17 18 19 20 20 20 20 20 20 20 19 18 18 19 18 20 21 20 19
29 29 29 28 28 28 27 26 24 22 19 17 16 17 17 17 16 16 17 17 18 18 19 19 19 19 20 21 21 21 21 21 20 19 19 18 19 19 19 19 19 19 17
31 32 32 32 30 30 29 28 27 24 20 17 15 15 16 17 17 18 18 18 19 19 19 19 20 20 21 22 22 22 22 21 21 21 20 20 19 19 19 20 19 18 16
32 33 34 34 32 31 30 28 27 26 23 18 16 15 16 17 19 19 19 20 20 22 23 23 23 23 23 23 22 23 22 22 21 21 21 21 20 19 20 20 19 18 18
31 32 32 32 32 31 28 29 27 25 24 22 20 18 18 17 18 19 19 19 20 21 22 22 22 22 22 22 22 22 23 22 20 21 20 20 19 19 19 20 20 20 18
28 28 29 29 29 29 28 29 29 27 26 25 22 21 21 21 21 20 19 21 21 20 19 19 19 19 21 22 22 22 22 22 21 21 20 20 21 21 22 23 22 21 20
Wind_Direction
226 222 218 215 212 207 208 220 210 232 186 185 186 183 184 181 175 175 179 176 176 175 175 187 198 203 209 213 211 208 205 200 205 220 210 215 206 203 199 189 214 248 249
235 236 232 231 233 206 207 229 251 197 204 185 185 180 177 172 171 173 182 180 181 185 187 187 201 202 203 206 206 208 209 204 209 224 226 224 224 228 237 252 259 245 269
234 233 238 239 234 204 195 248 251 238 221 200 187 188 190 192 186 182 185 185 188 192 195 197 206 209 213 215 211 212 208 206 209 221 234 233 236 245 257 275 284 279 285
197 227 234 229 207 206 242 248 243 253 241 196 197 201 192 193 192 188 190 194 198 201 206 211 215 218 218 216 214 214 216 217 219 226 236 242 247 268 290 289 285 293 294
204 223 231 239 242 244 246 246 246 249 208 201 198 194 195 197 198 198 197 199 199 206 218 223 224 223 220 215 215 217 216 217 222 230 239 246 255 275 282 297 287 292 302
199 210 238 239 241 242 244 247 249 245 209 194 199 200 199 199 201 199 195 197 203 211 218 222 225 226 224 222 221 223 222 221 228 235 244 249 258 276 282 288 295 295 294
216 232 238 238 240 241 243 243 240 232 255 198 198 197 199 199 201 200 200 206 215 218 219 219 222 222 219 222 222 224 228 230 233 240 249 253 261 275 284 290 295 297 298
231 236 238 237 238 238 236 234 246 250 218 197 197 198 200 203 200 201 204 210 221 222 220 219 219 222 219 220 224 229 231 235 241 245 248 257 264 274 285 289 294 298 301
235 233 231 230 233 234 229 240 245 249 253 199 204 201 199 203 199 202 201 213 222 222 222 222 220 221 221 225 230 236 240 243 253 252 254 260 268 276 285 296 307 312 313
223 216 223 227 227 225 239 242 244 248 248 247 198 199 197 198 197 199 198 208 220 220 222 220 221 224 229 236 237 239 243 248 260 262 265 277 282 294 295 295 303 310 317
222 223 227 230 234 239 241 241 243 247 250 249 216 208 194 197 201 201 202 205 217 224 224 225 223 226 231 234 240 245 251 269 276 276 284 297 312 316 316 318 317 316 319
217 228 234 237 239 240 241 243 245 249 253 258 261 261 256 208 204 204 203 206 210 214 219 224 257 279 257 254 260 262 259 266 289 288 296 304 312 317 321 323 326 322 317
215 227 235 235 237 238 239 242 246 250 254 259 264 270 274 276 276 232 227 214 214 221 251 283 298 301 297 297 287 284 292 301 298 298 300 306 313 321 326 330 332 333 332
231 228 237 236 236 238 242 245 248 252 256 260 263 269 271 275 278 280 281 278 256 274 260 272 285 302 304 304 306 303 299 301 299 300 306 313 321 325 329 335 336 339 340
238 239 242 242 240 244 246 249 254 256 258 261 266 268 271 275 278 281 282 286 289 290 290 293 298 301 303 304 304 304 306 308 307 309 313 318 323 328 332 337 340 342 343
241 241 243 248 251 248 250 254 262 268 266 264 268 271 275 274 281 282 283 284 287 293 297 296 298 301 303 307 308 309 311 312 315 318 319 322 324 328 333 338 343 345 347
253 251 247 260 262 261 249 256 261 269 274 274 272 272 274 281 281 282 285 287 288 290 292 295 297 302 306 308 311 312 313 316 318 319 320 322 326 330 334 340 344 348 350
268 286 274 258 263 250 272 272 273 273 276 278 280 280 280 279 281 285 286 290 291 290 293 294 296 302 305 308 310 312 313 315 316 319 321 326 329 331 335 339 345 348 350
293 266 273 268 269 279 284 284 282 283 283 285 287 289 290 287 283 283 285 289 290 291 293 295 298 301 304 308 311 313 315 317 319 320 322 323 326 328 330 336 342 346 349
278 275 277 278 282 285 288 290 291 290 289 291 291 289 290 288 287 288 288 291 295 296 297 297 300 303 306 309 311 314 316 318 319 320 320 322 322 323 326 330 335 339 344
279 279 280 283 283 285 286 288 291 296 298 294 292 293 291 288 290 292 293 297 297 299 303 305 305 307 308 310 312 314 315 316 317 318 318 318 320 321 324 326 329 335 340
282 280 279 280 281 283 284 283 287 292 299 302 301 298 294 292 294 296 298 299 303 306 307 307 308 308 310 311 312 312 313 315 317 318 318 317 318 319 322 325 328 333 335
282 280 279 280 280 283 283 282 282 287 293 296 297 296 296 295 296 297 298 301 305 308 312 313 313 313 313 314 314 314 313 315 316 318 316 316 317 319 322 325 327 330 332
281 280 279 279 279 279 279 282 283 285 288 290 289 288 291 295 298 299 300 303 305 308 310 311 312 312 312 312 313 313 313 313 314 314 315 316 315 316 318 321 324 327 327
283 282 282 282 280 279 279 278 280 285 287 287 288 288 292 296 298 299 302 305 309 311 314 315 316 317 320 321 321 320 319 317 315 313 313 314 314 316 317 317 318 318 318
284 284 285 285 283 282 281 280 280 282 283 285 288 286 289 291 295 297 300 302 305 309 316 320 323 325 325 326 327 329 330 328 324 321 316 315 313 313 314 313 314 313 311